Ionia, MI

7:31 AM EDT on June 26, 2017 (GMT -0400)
Ionia

Weather History for KY70 - December, 2012

Change the Weather History Date:

Tuesday, December 4, 2012

  Actual Average (KGRR) Record (KGRR)
Temperature  
Mean Temperature 50 °F -  
Max Temperature 63 °F 35 °F 65 °F (2012)
Min Temperature 36 °F 24 °F 6 °F (1893)
Degree Days  
Heating Degree Days 15    
Moisture  
Dew Point 39 °F    
Average Humidity 67    
Maximum Humidity 91    
Minimum Humidity 40    
Precipitation  
Precipitation 0.10 in - - ()
Sea Level Pressure  
Sea Level Pressure 29.98 in    
Wind  
Wind Speed 13 mph (West)    
Max Wind Speed 22 mph    
Max Gust Speed 31 mph    
Visibility 10 miles    
Events Rain    
Averages and records for this station are not official NWS values.
T = Trace of Precipitation, MM = Missing Value Source: NWS Daily Summary

Daily Weather History Graph

Daily Weather History Graph

Search for Another Location

Airport or City:

Trip Planner

Search our weather history database for the weather conditions in past years. The results will help you decide how hot, cold, wet, or windy it might be!

Date:

Astronomy

Dec. 04, 2012 Rise Set
Actual Time 7:55 AM EST 5:06 PM EST
Civil Twilight 7:23 AM EST 5:37 PM EST
Nautical Twilight 6:47 AM EST 6:13 PM EST
Astronomical Twilight 6:13 AM EST 6:47 PM EST
Moon 10:58 PM EST (12/4) 11:43 AM EST (12/4)
Length of Visible Light 10h 14m
Length of Day
9h 10m
Waning Gibbous, 69% of the Moon is Illuminated
Dec 4
Waning Gibbous
Dec 6
Last Quarter
Dec 13
New
Dec 20
First Quarter
Dec 28
Full

Hourly Weather History & Observations

Time (EST) Temp. Windchill Dew Point Humidity Pressure Visibility Wind Dir Wind Speed Gust Speed Precip Events Conditions
12:14 AM 62.6 °F - 54.5 °F 75% 29.82 in 10.0 mi SSW 17.3 mph 26.5 mph N/A   Overcast
12:34 AM 62.6 °F - 54.7 °F 75% 29.83 in 10.0 mi SSW 17.3 mph - N/A   Overcast
12:54 AM 62.6 °F - 54.7 °F 75% 29.83 in 10.0 mi SSW 16.1 mph 23.0 mph N/A   Overcast
1:14 AM 62.6 °F - 54.7 °F 75% 29.82 in 10.0 mi SW 21.9 mph - N/A   Overcast
1:34 AM 63.5 °F - 54.7 °F 73% 29.83 in 10.0 mi SW 20.7 mph 31.1 mph N/A   Overcast
1:54 AM 61.3 °F - 55.9 °F 82% 29.84 in 7.0 mi WSW 18.4 mph 28.8 mph 0.01 in Rain Rain
2:14 AM 60.1 °F - 57.4 °F 91% 29.84 in 3.0 mi West 17.3 mph 29.9 mph 0.09 in Rain Heavy Rain
2:34 AM 59.9 °F - 57.2 °F 91% 29.85 in 10.0 mi WSW 17.3 mph 23.0 mph 0.09 in   Overcast
2:54 AM 60.4 °F - 56.8 °F 88% 29.86 in 10.0 mi West 15.0 mph 19.6 mph 0.09 in   Overcast
3:14 AM 59.7 °F - 56.3 °F 88% 29.86 in 10.0 mi West 18.4 mph 24.2 mph N/A   Overcast
3:54 AM 56.8 °F - 54.0 °F 90% 29.87 in 10.0 mi WNW 10.4 mph 18.4 mph N/A   Overcast
4:14 AM 55.4 °F - 51.1 °F 85% 29.88 in 10.0 mi WNW 15.0 mph 21.9 mph N/A   Overcast
4:34 AM 54.0 °F - 50.2 °F 87% 29.89 in 10.0 mi WNW 12.7 mph - N/A   Overcast
4:54 AM 52.9 °F - 48.4 °F 85% 29.90 in 10.0 mi WNW 12.7 mph - N/A   Overcast
5:14 AM 52.2 °F - 47.7 °F 85% 29.90 in 10.0 mi WNW 11.5 mph - N/A   Overcast
5:34 AM 51.3 °F - 46.6 °F 84% 29.91 in 10.0 mi WNW 9.2 mph - N/A   Mostly Cloudy
5:54 AM 50.7 °F - 45.9 °F 83% 29.92 in 10.0 mi WNW 9.2 mph - N/A   Overcast
6:14 AM 50.0 °F - 45.1 °F 83% 29.93 in 10.0 mi WNW 11.5 mph - N/A   Light Drizzle
6:34 AM 49.5 °F - 44.6 °F 83% 29.94 in 10.0 mi WNW 8.1 mph - N/A   Overcast
6:54 AM 49.3 °F - 43.9 °F 82% 29.95 in 10.0 mi WNW 6.9 mph - N/A Rain Light Rain
7:14 AM 49.3 °F - 42.1 °F 76% 29.97 in 10.0 mi West 5.8 mph - N/A   Overcast
7:34 AM 49.1 °F - 41.0 °F 74% 29.97 in 10.0 mi West 5.8 mph - N/A   Overcast
7:54 AM 48.7 °F - 40.1 °F 72% 29.98 in 10.0 mi West 6.9 mph - N/A   Overcast
8:14 AM 48.4 °F - 39.9 °F 73% 29.99 in 10.0 mi West 8.1 mph - N/A   Overcast
8:34 AM 48.2 °F - 39.6 °F 72% 29.99 in 10.0 mi West 6.9 mph - N/A   Overcast
8:54 AM 48.4 °F - 39.2 °F 71% 29.99 in 10.0 mi West 6.9 mph - N/A   Mostly Cloudy
9:14 AM 48.2 °F - 38.7 °F 70% 29.99 in 10.0 mi WNW 6.9 mph - N/A   Overcast
9:34 AM 48.2 °F - 38.5 °F 69% 29.99 in 10.0 mi West 9.2 mph - N/A   Overcast
9:54 AM 48.2 °F - 37.8 °F 67% 29.99 in 10.0 mi West 10.4 mph - N/A   Overcast
10:14 AM 48.2 °F - 37.2 °F 66% 29.99 in 10.0 mi WNW 11.5 mph - N/A   Overcast
10:34 AM 48.6 °F - 36.1 °F 62% 29.99 in 10.0 mi West 9.2 mph - N/A   Mostly Cloudy
10:54 AM 49.1 °F - 35.8 °F 60% 30.00 in 10.0 mi West 9.2 mph - N/A   Scattered Clouds
11:14 AM 49.3 °F - 36.0 °F 60% 30.00 in 10.0 mi West 9.2 mph 16.1 mph N/A   Clear
11:34 AM 49.5 °F - 35.6 °F 59% 29.99 in 10.0 mi West 11.5 mph - N/A   Clear
11:54 AM 49.6 °F - 35.1 °F 57% 29.99 in 10.0 mi West 13.8 mph 19.6 mph N/A   Clear
12:14 PM 50.0 °F - 34.7 °F 56% 29.98 in 10.0 mi West 13.8 mph - N/A   Clear
12:34 PM 50.0 °F - 34.9 °F 56% 29.98 in 10.0 mi West 15.0 mph - N/A   Clear
1:14 PM 51.6 °F - 34.3 °F 52% 29.98 in 10.0 mi West 13.8 mph 21.9 mph N/A   Clear
1:34 PM 51.8 °F - 34.3 °F 51% 29.98 in 10.0 mi West 13.8 mph 19.6 mph N/A   Clear
1:54 PM 53.4 °F - 32.9 °F 46% 29.97 in 10.0 mi West 13.8 mph 20.7 mph N/A   Clear
2:14 PM 52.3 °F - 31.5 °F 45% 29.98 in 10.0 mi West 10.4 mph 19.6 mph N/A   Clear
2:34 PM 52.7 °F - 29.1 °F 40% 29.98 in 10.0 mi West 13.8 mph - N/A   Clear
2:54 PM 51.1 °F - 29.8 °F 44% 29.98 in 10.0 mi West 15.0 mph 21.9 mph N/A   Clear
3:14 PM 50.9 °F - 30.7 °F 46% 29.98 in 10.0 mi West 13.8 mph - N/A   Clear
3:34 PM 50.9 °F - 31.3 °F 47% 29.98 in 10.0 mi West 10.4 mph - N/A   Clear
3:54 PM 50.9 °F - 30.6 °F 46% 29.99 in 10.0 mi West 13.8 mph 18.4 mph N/A   Clear
4:14 PM 50.0 °F - 31.1 °F 48% 29.99 in 10.0 mi West 11.5 mph 19.6 mph N/A   Clear
4:34 PM 49.8 °F - 31.1 °F 49% 30.01 in 10.0 mi West 12.7 mph 18.4 mph N/A   Clear
4:54 PM 48.7 °F - 31.3 °F 51% 30.01 in 10.0 mi West 11.5 mph 17.3 mph N/A   Clear
5:14 PM 47.1 °F - 31.1 °F 54% 30.02 in 10.0 mi West 9.2 mph - N/A   Clear
5:54 PM 44.6 °F 40.2 °F 31.8 °F 61% 30.03 in 10.0 mi WSW 8.1 mph - N/A   Clear
6:14 PM 43.7 °F 38.6 °F 32.4 °F 64% 30.04 in 10.0 mi WSW 9.2 mph - N/A   Clear
6:34 PM 42.6 °F 38.4 °F 32.5 °F 68% 30.04 in 10.0 mi WSW 6.9 mph - N/A   Clear
6:54 PM 41.5 °F 36.4 °F 32.7 °F 71% 30.04 in 10.0 mi WSW 8.1 mph - N/A   Clear
7:14 PM 42.4 °F 36.5 °F 33.4 °F 70% 30.05 in 10.0 mi WSW 10.4 mph - N/A   Clear
7:34 PM 42.8 °F 37.0 °F 34.2 °F 72% 30.04 in 10.0 mi West 10.4 mph - N/A   Clear
7:54 PM 43.9 °F 37.9 °F 34.0 °F 68% 30.05 in 10.0 mi West 11.5 mph - N/A   Clear
8:14 PM 44.2 °F 38.4 °F 33.8 °F 67% 30.07 in 10.0 mi West 11.5 mph - N/A   Clear
8:34 PM 43.9 °F 37.2 °F 32.9 °F 65% 30.07 in 10.0 mi WNW 13.8 mph - N/A   Clear
8:54 PM 43.2 °F 36.2 °F 32.0 °F 65% 30.07 in 10.0 mi WNW 13.8 mph 18.4 mph N/A   Clear
9:14 PM 42.8 °F 35.8 °F 30.6 °F 62% 30.08 in 10.0 mi WNW 13.8 mph 23.0 mph N/A   Clear
9:34 PM 42.1 °F 35.2 °F 29.8 °F 62% 30.09 in 10.0 mi WNW 12.7 mph - N/A   Clear
9:54 PM 41.5 °F 34.6 °F 29.1 °F 61% 30.10 in 10.0 mi NW 12.7 mph 21.9 mph N/A   Clear
10:14 PM 40.5 °F 32.8 °F 28.2 °F 62% 30.11 in 10.0 mi NW 13.8 mph 23.0 mph N/A   Clear
10:34 PM 39.6 °F 31.0 °F 28.0 °F 63% 30.11 in 10.0 mi NW 16.1 mph 20.7 mph N/A   Clear
10:54 PM 38.7 °F 30.1 °F 27.5 °F 64% 30.12 in 10.0 mi NW 15.0 mph 20.7 mph N/A   Clear
11:14 PM 38.3 °F 31.4 °F 27.1 °F 64% 30.13 in 10.0 mi NW 10.4 mph 23.0 mph N/A   Clear
11:34 PM 37.6 °F 30.5 °F 27.1 °F 66% 30.13 in 10.0 mi NW 10.4 mph - N/A   Clear
11:54 PM 36.9 °F 30.1 °F 27.0 °F 67% 30.14 in 10.0 mi NW 9.2 mph 19.6 mph N/A   Clear